Location: Nelson
(41.2830°S, 173.2830°E)
Time: 12:21:07
(UTC+13:00)

Meteor 1-26 Rocket - Pass Details

Date: 23 October 2019
Orbit: 817 x 918 km, 81.3° (Epoch: 11 November)

Event Time Altitude Azimuth Distance (km) Brightness Sun altitude
Rises 22:30:53 0° 187° (S) 3,387 8.1 -25.7°
Reaches altitude 10° 22:33:19 10° 184° (S) 2,451 7.2 -26.0°
Enters shadow 22:38:40 66° 112° (ESE) 913 4.2 -26.7°
